Location: Klein M�hlingen
(51.9472°N, 11.7453°E)
Time: 01:57:17
(UTC+00:00)

ISS - Pass Details

Date: 27 September 2021
Orbit: 417 x 423 km, 51.6° (Epoch: 25 October)

Event Time Altitude Azimuth Distance (km) Brightness Sun altitude
Rises 18:11:05 0° 274° (W) 2,365 2.1 -11.8°
Reaches altitude 10° 18:13:11 10° 273° (W) 1,502 0.5 -12.1°
Maximum altitude 18:16:33 84° 186° (S) 427 -3.8 -12.6°
Enters shadow 18:18:28 24° 99° (E) 922 -2.7 -12.9°
